1513306801.03,43407,4.56,71618.5,-10.21,-13.01,-13.29,0,*6C
1513306802.27,43408,4.56,71618.0,-10.19,-12.79,-12.97,0,*62
1513306803.51,43409,4.56,71622.8,-10.19,-12.39,-12.65,0,*6A
1513306804.77,43410,4.56,71618.0,-10.19,-12.65,-12.57,0,*6A
1513306805.98,43411,4.5,71610.0,-10.15,-13.23,-12.89,0,*67
1513306807.23,43412,4.56,71614.3,-10.19,-13.37,-12.89,0,*6D
1513306808.46,43413,4.56,71632.3,-10.15,-13.55,-12.83,0,*6E
1513306809.67,43414,4.56,71648.5,-10.15,-14.37,-13.23,0,*61
1513306810.91,43415,4.5,71594.0,-10.13,-15.49,-14.11,0,*68
1513306812.11,43416,4.5,71552.5,-10.15,-15.25,-14.37,0,*63
1513306813.32,43417,4.5,71536.8,-10.15,-15.11,-14.65,0,*62
1513306814.58,43418,4.5,71534.5,-10.13,-14.69,-14.51,0,*62
1513306815.82,43419,4.5,71542.3,-10.13,-14.23,-14.23,0,*68
1513306817.03,43420,4.56,71562.8,-10.15,-14.11,-14.11,0,*64
1513306818.26,43421,4.5,71572.3,-10.13,-13.93,-13.65,0,*6A
1513306819.47,43422,4.5,71566.5,-10.15,-13.55,-13.11,0,*66
1513306820.71,43423,4.56,71564.5,-10.15,-13.23,-12.75,0,*65
1513306821.95,43424,4.5,71582.8,-10.13,-13.07,-12.47,0,*63
1513306823.21,43425,4.5,71546.3,-10.15,-13.01,-12.57,0,*63
1513306824.48,43426,4.5,71558.8,-10.13,-13.19,-12.65,0,*6E
1513306825.76,43427,4.5,71556.5,-10.13,-13.33,-12.61,0,*63
1513306827.03,43428,4.56,71560.3,-10.13,-13.19,-12.65,0,*60
1513306828.31,43429,4.5,71568.8,-10.13,-12.83,-12.53,0,*66
1513306829.58,43430,4.5,71556.3,-10.13,-12.75,-12.39,0,*6B
1513306830.81,43431,4.5,71582.0,-10.15,-12.65,-12.43,0,*60
1513306832.1,43432,4.5,71596.8,-10.13,-12.75,-12.65,0,*60
1513306833.35,43433,4.5,71600.5,-10.13,-13.51,-13.23,0,*65
1513306834.58,43434,4.5,71608.3,-10.15,-14.75,-14.37,0,*67
1513306835.8,43435,4.5,71592.0,-10.09,-15.95,-15.53,0,*67
1513306837.07,43436,4.5,71582.3,-10.09,-17.07,-16.23,0,*69
1513306838.29,43437,4.5,71546.3,-10.15,-16.55,-15.53,0,*67
1513306839.58,43438,4.5,71574.5,-10.13,-15.57,-15.21,0,*6A
1513306840.82,43439,4.5,71596.8,-10.13,-15.67,-15.71,0,*6D
1513306842.06,43440,4.5,71580.0,-10.15,-16.27,-16.59,0,*6B
1513306843.29,43441,4.5,71574.0,-10.15,-16.97,-17.17,0,*6A
1513306844.56,43442,4.5,71558.5,-10.13,-18.17,-18.31,0,*62
1513306845.84,43443,4.5,71592.0,-10.13,-18.35,-18.55,0,*61
1513306847.1,43444,4.5,71572.3,-10.13,-18.01,-18.17,0,*67
1513306848.34,43445,4.56,71564.8,-10.15,-16.59,-17.21,0,*69
1513306849.6,43446,4.5,71548.0,-10.13,-15.35,-15.99,0,*64
1513306850.84,43447,4.5,71548.5,-10.13,-15.49,-16.89,0,*6C
1513306852.1,43448,4.5,71554.3,-10.13,-16.37,-17.25,0,*6E
1513306853.34,43449,4.5,71550.5,-10.13,-16.55,-16.89,0,*6C
1513306854.57,43450,4.5,71560.0,-10.15,-16.03,-16.27,0,*65
1513306855.84,43451,4.5,71564.3,-10.15,-15.39,-15.39,0,*62
1513306857.07,43452,4.5,71562.0,-10.15,-15.89,-15.63,0,*65
1513306858.34,43453,4.5,71570.0,-10.13,-15.95,-16.13,0,*6B
1513306859.57,43454,4.5,71556.5,-10.15,-16.17,-16.41,0,*64
1513306860.79,43455,4.5,71558.3,-10.15,-15.29,-15.29,0,*66
1513306862.03,43456,4.5,71564.5,-10.15,-14.43,-14.29,0,*69
1513306863.26,43457,4.56,71586.5,-10.15,-13.15,-13.29,0,*6B
1513306864.52,43458,4.5,71598.8,-10.13,-13.19,-13.37,0,*61
1513306865.76,43459,4.5,71586.5,-10.13,-13.19,-13.23,0,*65
1513306867.06,43460,4.5,71584.5,-10.13,-12.53,-12.75,0,*62
1513306868.35,43461,4.5,71584.5,-10.13,-12.35,-12.61,0,*66
1513306869.61,43462,4.5,71590.5,-10.13,-11.97,-12.25,0,*6E
1513306870.87,43463,4.5,71602.0,-10.13,-11.81,-12.25,0,*68
1513306872.13,43464,4.56,71600.8,-10.13,-12.07,-12.25,0,*62
1513306873.43,43465,4.5,71590.0,-10.13,-12.11,-12.35,0,*65
1513306874.7,43466,4.5,71586.5,-10.13,-12.25,-12.53,0,*61
1513306875.95,43467,4.5,71594.3,-10.09,-12.47,-12.71,0,*6F
1513306877.19,43468,4.56,71594.0,-10.09,-12.57,-12.89,0,*66
1513306878.46,43469,4.5,71578.8,-10.09,-12.61,-13.29,0,*69
1513306879.72,43470,4.5,71574.8,-10.09,-12.71,-13.29,0,*60
1513306880.96,43471,4.5,71582.5,-10.09,-12.79,-13.07,0,*65
1513306882.24,43472,4.5,71576.5,-10.09,-13.01,-12.79,0,*60
1513306883.49,43473,4.56,71582.0,-10.09,-12.93,-12.75,0,*67
1513306884.76,43474,4.5,71612.8,-10.09,-12.75,-12.35,0,*6C
1513306886.03,43475,4.5,71578.5,-10.09,-12.71,-12.15,0,*6B
1513306887.3,43476,4.5,71560.8,-10.09,-12.57,-11.89,0,*6A
1513306888.56,43477,4.5,71530.8,-10.07,-12.43,-11.77,0,*61
1513306889.82,43478,4.5,71524.8,-10.07,-12.47,-11.77,0,*6A
1513306891.11,43479,4.5,71534.8,-10.07,-12.61,-11.73,0,*6B
1513306892.4,43480,4.5,71532.0,-10.07,-12.57,-11.73,0,*68
1513306893.68,43481,4.5,71542.8,-10.07,-12.15,-11.59,0,*67
1513306894.95,43482,4.5,71550.8,-10.09,-11.85,-11.37,0,*68
1513306896.22,43483,4.5,71524.8,-10.07,-11.63,-11.45,0,*6A
1513306897.48,43484,4.5,71552.8,-10.07,-11.63,-11.45,0,*6D
1513306898.77,43485,4.5,71544.8,-10.07,-11.73,-11.37,0,*68
1513306900.01,43486,4.5,71534.8,-10.05,-11.77,-11.45,0,*68
1513306901.27,43487,4.5,71554.5,-10.05,-11.85,-11.59,0,*69
1513306902.54,43488,4.5,71550.3,-10.05,-11.93,-11.73,0,*69
1513306903.8,43489,4.5,71558.0,-10.05,-11.93,-11.77,0,*6C
1513306905.06,43490,4.5,71556.8,-10.05,-12.07,-11.77,0,*6A
1513306906.33,43491,4.5,71560.0,-10.07,-12.43,-12.35,0,*6C
1513306907.63,43492,4.5,71572.5,-10.07,-12.75,-12.71,0,*6A
1513306908.9,43493,4.5,71568.0,-10.07,-13.33,-13.19,0,*67
1513306910.13,43494,4.5,71584.3,-10.07,-13.69,-13.55,0,*67
1513306911.4,43495,4.5,71574.0,-10.07,-13.87,-13.73,0,*62
1513306912.63,43496,4.5,71578.0,-10.07,-13.73,-13.55,0,*6E
1513306913.89,43497,4.5,71574.8,-10.05,-13.29,-13.01,0,*63
1513306915.18,43498,4.5,71578.5,-10.03,-12.83,-12.65,0,*68
1513306916.44,43499,4.5,71580.8,-10.05,-12.35,-12.07,0,*66
1513306917.71,43500,4.5,71590.0,-10.05,-12.07,-11.85,0,*6F
1513306918.97,43501,4.5,71584.8,-10.05,-11.93,-11.77,0,*6D
1513306920.24,43502,4.5,71594.5,-10.05,-11.93,-11.85,0,*63
1513306921.47,43503,4.5,71594.3,-10.05,-12.03,-11.77,0,*65
1513306922.76,43504,4.5,71582.8,-10.03,-11.97,-11.73,0,*6E
1513306924.03,43505,4.5,71594.0,-10.05,-11.93,-11.73,0,*6D
1513306925.29,43506,4.5,71630.0,-10.05,-11.89,-11.59,0,*6D
1513306926.58,43507,4.5,71624.0,-10.03,-11.81,-11.59,0,*62
1513306927.84,43508,4.5,71614.3,-10.05,-11.77,-11.51,0,*6A
1513306929.13,43509,4.5,71624.5,-10.03,-11.81,-11.55,0,*60
1513306930.37,43510,4.5,71608.0,-10.05,-12.21,-11.85,0,*6A
1513306931.64,43511,4.5,71612.8,-10.03,-12.57,-12.29,0,*69
1513306932.9,43512,4.5,71608.3,-10.03,-13.01,-12.97,0,*6D
1513306934.15,43513,4.5,71614.3,-10.03,-14.15,-14.11,0,*66
1513306935.41,43514,4.5,71638.5,-10.03,-14.61,-14.83,0,*69
1513306936.7,43515,4.5,71590.3,-10.03,-16.51,-16.65,0,*63
1513306937.9,43516,4.5,71602.3,-10.05,-16.93,-16.93,0,*61
1513306939.16,43517,4.5,71600.8,-10.03,-18.59,-18.41,0,*6F
1513306940.39,43518,4.5,71552.0,-10.03,-18.25,-18.25,0,*69
1513306941.63,43519,4.5,71556.0,-10.03,-18.73,-18.45,0,*6D
1513306942.84,43520,4.5,71574.8,-10.05,-18.79,-18.25,0,*6D
1513306944.08,43521,4.5,71556.0,-10.05,-19.31,-18.49,0,*6B
1513306945.31,43522,4.5,71564.0,-10.05,-19.17,-17.83,0,*65
1513306946.52,43523,4.5,71530.5,-10.05,-18.49,-16.83,0,*6F
1513306947.73,43524,4.5,71538.3,-10.05,-17.73,-16.79,0,*6B
1513306949.0,43525,4.5,71554.5,-10.05,-17.07,-16.65,0,*64
1513306950.26,43526,4.5,71582.8,-10.05,-16.51,-16.31,0,*64
1513306951.53,43527,4.5,71534.8,-10.05,-17.45,-17.11,0,*62
1513306952.8,43528,4.5,71536.0,-10.05,-17.45,-17.07,0,*6A
1513306954.06,43529,4.5,71556.0,-10.05,-16.51,-16.31,0,*6B
1513306955.3,43530,4.5,71574.5,-10.05,-16.37,-16.51,0,*65
1513306956.51,43531,4.5,71556.5,-10.05,-16.03,-16.03,0,*64
1513306957.76,43532,4.5,71532.5,-10.05,-15.95,-15.81,0,*62
1513306959.02,43533,4.5,71562.8,-10.05,-14.55,-14.75,0,*64
1513306960.26,43534,4.5,71602.3,-10.05,-13.55,-13.61,0,*66
1513306961.49,43535,4.5,71608.3,-10.05,-13.33,-13.47,0,*63
1513306962.75,43536,4.5,71604.0,-10.05,-13.61,-14.05,0,*66
1513306963.98,43537,4.5,71590.8,-10.05,-13.93,-14.43,0,*68
1513306965.22,43538,4.5,71598.3,-10.05,-13.83,-14.11,0,*61
1513306966.46,43539,4.5,71592.8,-10.03,-13.43,-13.69,0,*62
1513306967.69,43540,4.5,71588.0,-10.03,-13.69,-14.11,0,*6C
1513306968.98,43541,4.5,71582.5,-10.03,-14.43,-14.51,0,*66
1513306970.19,43542,4.5,71570.3,-10.05,-15.07,-14.61,0,*61
1513306971.42,43543,4.5,71534.5,-10.05,-14.93,-14.29,0,*60
1513306972.64,43544,4.5,71556.0,-10.05,-15.75,-15.71,0,*62
1513306973.88,43545,4.5,71538.8,-10.03,-18.25,-18.11,0,*66
1513306975.11,43546,4.5,71538.0,-10.05,-18.89,-18.79,0,*6B
1513306976.38,43547,4.5,71536.5,-10.05,-19.23,-19.23,0,*65
1513306977.59,43548,4.5,71532.5,-10.05,-19.51,-19.71,0,*68
1513306978.86,43549,4.5,71522.0,-10.03,-19.47,-19.61,0,*69
1513306980.09,43550,4.5,71526.8,-10.03,-19.03,-18.69,0,*68
1513306981.33,43551,4.5,71520.5,-10.03,-18.25,-16.93,0,*67
1513306982.57,43552,4.5,71588.0,-10.05,-16.09,-15.07,0,*6C
1513306983.81,43553,4.5,71576.3,-10.05,-15.29,-15.01,0,*6A
1513306985.05,43554,4.5,71524.0,-10.05,-15.67,-15.35,0,*60
1513306986.31,43555,4.5,71518.3,-10.03,-15.89,-16.41,0,*67
1513306987.58,43556,4.5,71524.8,-10.05,-16.17,-16.65,0,*60
1513306988.87,43557,4.5,71526.8,-10.03,-14.83,-14.51,0,*6D
1513306990.16,43558,4.5,71544.5,-10.03,-13.97,-14.43,0,*63
1513306991.42,43559,4.5,71566.0,-10.03,-15.11,-15.89,0,*6D
1513306992.7,43560,4.5,71530.8,-10.03,-17.79,-18.59,0,*6B
1513306993.93,43561,4.5,71496.0,-10.03,-16.79,-16.45,0,*68
1513306995.18,43562,4.5,71492.0,-10.03,-15.15,-15.15,0,*64
1513306996.42,43563,4.5,71510.3,-10.03,-15.29,-15.11,0,*6E
1513306997.71,43564,4.5,71498.3,-10.03,-14.43,-14.51,0,*61
1513306998.97,43565,4.5,71542.3,-10.03,-14.37,-14.75,0,*65
1513307000.2,43566,4.5,71538.8,-10.05,-15.21,-15.67,0,*64
1513307001.44,43567,4.5,71564.3,-10.05,-16.79,-17.55,0,*68
1513307002.7,43568,4.5,71548.5,-9.99,-17.93,-18.49,0,*5D
1513307003.93,43569,4.5,71588.8,-10.03,-18.45,-19.47,0,*6C
1513307005.17,43570,4.5,71572.5,-10.03,-18.73,-19.75,0,*60
1513307006.38,43571,4.5,71564.8,-10.05,-18.11,-19.03,0,*62
1513307007.62,43572,4.5,71542.3,-10.03,-17.31,-18.11,0,*68
1513307008.84,43573,4.5,71570.3,-10.05,-16.83,-18.11,0,*67
1513307010.1,43574,4.5,71568.5,-10.03,-17.93,-19.51,0,*63
1513307011.39,43575,4.5,71556.3,-10.03,-17.41,-18.89,0,*69
1513307012.6,43576,4.5,71570.5,-10.01,-16.83,-18.41,0,*63
1513307013.82,43577,4.5,71566.3,-10.05,-16.55,-18.11,0,*68
1513307015.09,43578,4.5,71582.3,-10.03,-16.27,-18.11,0,*64
1513307016.38,43579,4.5,71588.3,-10.03,-14.97,-16.09,0,*6B
1513307017.67,43580,4.5,71586.5,-10.03,-13.87,-15.01,0,*60
1513307018.96,43581,4.5,71588.0,-10.03,-13.87,-14.75,0,*63
1513307020.23,43582,4.5,71604.8,-10.03,-13.83,-14.15,0,*62
1513307021.49,43583,4.5,71624.5,-10.03,-13.69,-13.37,0,*60
1513307022.76,43584,4.5,71626.5,-10.03,-13.29,-12.89,0,*67
1513307024.0,43585,4.5,71610.0,-10.01,-12.93,-12.65,0,*66
1513307025.24,43586,4.5,71590.5,-10.03,-12.97,-12.89,0,*61
1513307026.48,43587,4.5,71590.8,-10.03,-13.15,-12.97,0,*64
1513307027.74,43588,4.5,71576.3,-10.03,-13.37,-12.97,0,*6B
1513307029.0,43589,4.5,71566.5,-10.03,-13.15,-12.65,0,*67
1513307030.26,43590,4.5,71544.0,-10.03,-12.43,-12.11,0,*6E
1513307031.53,43591,4.5,71548.0,-10.01,-11.67,-11.51,0,*6F
1513307032.77,43592,4.5,71582.5,-10.01,-11.29,-11.15,0,*66
1513307033.99,43593,4.5,71566.3,-10.01,-11.15,-11.01,0,*6D
1513307035.2,43594,4.5,71566.5,-10.01,-11.23,-11.23,0,*6F
1513307036.47,43595,4.5,71572.5,-10.01,-11.37,-11.37,0,*6E
1513307037.75,43596,4.5,71560.5,-9.99,-11.29,-11.29,0,*54
1513307039.04,43597,4.5,71564.8,-9.99,-11.29,-11.29,0,*55
1513307040.26,43598,4.5,71586.5,-10.01,-11.15,-11.15,0,*63
1513307041.49,43599,4.5,71596.5,-9.99,-11.11,-11.01,0,*5A
1513307042.73,43600,4.5,71588.3,-9.99,-11.01,-10.97,0,*56
1513307043.98,43601,4.5,71550.5,-9.99,-11.01,-10.97,0,*57
1513307045.19,43602,4.5,71520.5,-10.01,-11.11,-11.11,0,*63
1513307046.43,43603,4.5,71514.0,-10.01,-11.29,-11.15,0,*6D
1513307047.68,43604,4.5,71538.3,-10.01,-11.29,-11.11,0,*6E
1513307048.93,43605,4.5,71568.8,-9.99,-11.37,-11.23,0,*58
1513307050.2,43606,4.5,71558.0,-9.99,-11.29,-11.15,0,*51
1513307051.46,43607,4.5,71570.8,-10.01,-11.37,-11.29,0,*69
1513307052.74,43608,4.5,71588.0,-9.99,-11.51,-11.51,0,*50
1513307054.0,43609,4.5,71574.8,-9.99,-12.35,-12.39,0,*5D
1513307055.26,43610,4.5,71554.8,-9.99,-13.33,-12.93,0,*52
1513307056.55,43611,4.5,71544.5,-9.99,-13.83,-13.33,0,*53
1513307057.79,43612,4.5,71552.8,-10.01,-13.93,-13.83,0,*63
1513307059.04,43613,4.5,71566.3,-9.99,-13.79,-13.69,0,*5B
1513307060.3,43614,4.5,71592.5,-9.99,-14.05,-14.23,0,*59
1513307061.54,43615,4.5,71590.5,-9.99,-14.23,-15.11,0,*5C
1513307062.77,43616,4.5,71598.3,-10.01,-14.19,-14.65,0,*6D
1513307064.0,43617,4.5,71604.0,-9.99,-13.93,-14.23,0,*52
1513307065.26,43618,4.5,71604.5,-9.99,-14.11,-14.05,0,*54
1513307066.52,43619,4.5,71610.0,-9.99,-13.83,-13.69,0,*54
1513307067.79,43620,4.5,71604.3,-9.99,-13.37,-13.19,0,*56
1513307069.0,43621,4.5,71596.5,-10.01,-12.97,-12.97,0,*62
1513307070.29,43622,4.5,71582.8,-9.99,-12.83,-12.79,0,*5D
1513307071.5,43623,4.5,71564.8,-9.97,-12.43,-12.43,0,*57
1513307072.76,43624,4.5,71642.5,-9.97,-12.15,-12.07,0,*53
1513307074.02,43625,4.5,71620.5,-9.97,-12.15,-12.15,0,*51
1513307075.23,43626,4.5,71592.3,-9.97,-12.47,-12.47,0,*52
1513307076.46,43627,4.5,71584.8,-9.97,-12.65,-12.47,0,*53
1513307077.69,43628,4.5,71592.8,-9.97,-12.65,-12.47,0,*5C
1513307078.93,43629,4.5,71586.5,-9.97,-12.61,-12.47,0,*59
1513307080.18,43630,4.5,71596.0,-9.95,-12.61,-12.47,0,*53
1513307081.46,43631,4.5,71596.0,-9.95,-12.61,-12.75,0,*53
1513307082.71,43632,4.5,71584.3,-9.97,-12.65,-13.01,0,*54
1513307083.94,43633,4.5,71580.5,-9.97,-12.61,-13.15,0,*54
1513307085.17,43634,4.5,71602.3,-9.97,-12.65,-13.15,0,*57
1513307086.4,43635,4.5,71618.8,-9.99,-13.65,-14.19,0,*52
1513307087.64,43636,4.5,71606.0,-9.97,-15.07,-15.39,0,*5E
1513307088.88,43637,4.5,71598.3,-9.97,-15.29,-15.21,0,*5A
1513307090.09,43638,4.5,71598.0,-9.97,-15.49,-15.29,0,*5B
1513307091.33,43639,4.5,71608.0,-9.97,-16.83,-17.21,0,*55
1513307092.56,43640,4.5,71594.3,-9.97,-18.59,-19.37,0,*5B
1513307093.8,43641,4.5,71584.0,-9.97,-19.37,-19.85,0,*5A
1513307095.01,43642,4.5,71580.8,-9.97,-18.45,-18.79,0,*5F
1513307096.27,43643,4.5,71590.5,-9.97,-16.51,-17.11,0,*54
1513307097.53,43644,4.5,71574.8,-9.97,-17.41,-17.55,0,*53
1513307098.8,43645,4.5,71562.0,-9.97,-16.09,-15.39,0,*57
1513307100.03,43646,4.5,71576.8,-9.97,-14.75,-14.19,0,*5E
1513307101.27,43647,4.5,71606.0,-9.95,-14.29,-14.15,0,*58
1513307102.51,43648,4.5,71588.3,-9.97,-14.15,-14.05,0,*5B
1513307103.72,43649,4.5,71592.0,-9.97,-13.73,-13.73,0,*5B
1513307104.95,43650,4.5,71586.8,-9.97,-13.15,-13.33,0,*57
1513307106.2,43651,4.5,71572.3,-9.97,-12.65,-13.01,0,*51
1513307107.46,43652,4.5,71568.5,-9.97,-12.57,-13.01,0,*53
1513307108.71,43653,4.5,71572.5,-9.95,-12.75,-13.15,0,*55
1513307109.97,43654,4.5,71578.8,-9.97,-12.61,-12.79,0,*5E
1513307111.19,43655,4.5,71576.8,-9.97,-12.29,-12.43,0,*5A
1513307112.45,43656,4.5,71576.8,-9.95,-12.21,-12.07,0,*53
1513307113.68,43657,4.5,71572.5,-9.97,-12.47,-12.15,0,*53
1513307114.92,43658,4.5,71598.3,-9.97,-12.65,-12.21,0,*5B
1513307116.15,43659,4.5,71606.0,-9.95,-12.89,-12.43,0,*5E
1513307117.39,43660,4.5,71594.0,-9.97,-13.19,-12.61,0,*5E
1513307118.66,43661,4.5,71572.8,-9.95,-13.29,-13.01,0,*59
1513307119.9,43662,4.5,71644.0,-9.97,-13.55,-13.33,0,*52
1513307121.15,43663,4.5,71586.0,-9.95,-14.29,-13.87,0,*52
1513307122.4,43664,4.5,71548.0,-9.95,-16.31,-15.15,0,*53
1513307123.67,43665,4.5,71548.5,-9.95,-17.41,-16.83,0,*58
1513307124.91,43666,4.5,71570.8,-9.97,-15.81,-15.53,0,*59
1513307126.13,43667,4.5,71578.0,-9.95,-16.93,-16.97,0,*51
1513307127.37,43668,4.5,71570.5,-9.97,-17.11,-17.87,0,*57
1513307128.62,43669,4.5,71556.0,-9.95,-16.83,-16.31,0,*52
1513307129.86,43670,4.5,71574.5,-9.97,-16.17,-15.75,0,*56
1513307131.08,43671,4.5,71578.3,-9.97,-16.79,-16.03,0,*5D
1513307132.28,43672,4.5,71544.5,-9.97,-18.45,-16.97,0,*52
1513307133.55,43673,4.5,71512.8,-9.97,-18.31,-16.23,0,*5F
1513307134.79,43674,4.5,71520.0,-9.97,-17.41,-15.63,0,*57
1513307136.04,43675,4.5,71544.3,-9.95,-16.03,-14.93,0,*5D
1513307137.27,43676,4.5,71562.5,-9.95,-15.53,-15.07,0,*54
1513307138.51,43677,4.5,71512.5,-9.95,-15.95,-15.75,0,*5A
1513307139.77,43678,4.5,71568.8,-9.95,-15.29,-15.35,0,*56
1513307141.0,43679,4.5,71602.8,-9.97,-15.07,-15.01,0,*5E
1513307142.24,43680,4.5,71574.3,-9.97,-15.81,-15.49,0,*5A
1513307143.52,43681,4.5,71564.8,-9.95,-17.25,-16.23,0,*5A
1513307144.78,43682,4.5,71558.5,-9.95,-18.79,-17.55,0,*5F
1513307146.03,43683,4.5,71550.3,-9.95,-18.17,-17.11,0,*56
1513307147.26,43684,4.5,71580.0,-9.95,-17.69,-16.97,0,*58
1513307148.5,43685,4.5,71552.3,-9.97,-18.45,-17.97,0,*5B
1513307149.74,43686,4.5,71554.5,-9.97,-19.27,-18.79,0,*52
1513307150.94,43687,4.5,71554.5,-9.97,-18.79,-18.79,0,*59
1513307152.14,43688,4.5,71566.0,-9.97,-18.73,-19.07,0,*54
1513307153.35,43689,4.5,71602.0,-9.97,-18.45,-18.49,0,*5B
1513307154.58,43690,4.5,71568.3,-9.97,-18.45,-18.59,0,*52
1513307155.84,43691,4.5,71572.8,-9.97,-17.11,-17.11,0,*5E
1513307157.09,43692,4.5,71578.5,-9.95,-16.23,-15.67,0,*5C
1513307158.32,43693,4.5,71594.0,-9.95,-15.95,-15.63,0,*57
1513307159.61,43694,4.5,71600.0,-9.99,-16.09,-15.85,0,*52
1513307160.87,43695,4.5,71572.3,-9.97,-16.23,-16.17,0,*5D
1513307162.08,43696,4.5,71568.5,-9.97,-15.95,-16.55,0,*56
1513307163.33,43697,4.5,71572.5,-9.97,-14.79,-15.29,0,*5C
1513307164.59,43698,4.5,71582.3,-9.97,-14.01,-14.05,0,*53
1513307165.82,43699,4.5,71584.5,-9.97,-13.33,-13.43,0,*51
1513307167.08,43700,4.5,71582.0,-9.97,-12.79,-13.01,0,*59
1513307168.32,43701,4.5,71582.8,-9.97,-12.35,-12.21,0,*53
1513307169.58,43702,4.5,71580.0,-9.97,-11.77,-11.89,0,*54
1513307170.86,43703,4.5,71578.0,-9.95,-11.73,-12.07,0,*56
1513307172.09,43704,4.5,71582.3,-9.97,-11.81,-12.47,0,*5A
1513307173.34,43705,4.5,71590.8,-9.95,-11.89,-12.43,0,*55
1513307174.61,43706,4.5,71586.0,-9.97,-11.93,-12.65,0,*5B
1513307175.84,43707,4.5,71568.0,-9.97,-12.35,-13.43,0,*50
1513307177.1,43708,4.5,71572.0,-9.95,-12.57,-13.19,0,*56
1513307178.38,43709,4.5,71582.8,-9.95,-12.75,-13.29,0,*54
1513307179.66,43710,4.5,71588.0,-9.95,-13.01,-13.29,0,*5E
1513307180.91,43711,4.5,71590.0,-9.95,-13.29,-13.15,0,*5A
1513307182.17,43712,4.5,71590.5,-9.95,-13.07,-12.79,0,*5E
1513307183.45,43713,4.5,71592.8,-9.95,-12.65,-12.57,0,*56
1513307184.68,43714,4.5,71582.0,-9.97,-12.43,-11.89,0,*57
1513307185.97,43715,4.5,71536.0,-9.95,-12.35,-11.63,0,*51
1513307187.25,43716,4.5,71552.3,-9.95,-12.07,-11.59,0,*5A
1513307188.54,43717,4.5,71584.0,-9.95,-12.35,-11.63,0,*53
1513307189.82,43718,4.5,71582.3,-9.95,-12.79,-12.15,0,*56
1513307191.1,43719,4.5,71560.0,-9.95,-13.61,-12.75,0,*59
1513307192.33,43720,4.5,71588.3,-9.95,-14.33,-13.65,0,*53
1513307193.62,43721,4.5,71586.3,-9.95,-14.51,-14.05,0,*57
1513307194.89,43722,4.5,71568.8,-9.91,-15.43,-14.43,0,*50
1513307196.13,43723,4.5,71514.3,-9.91,-16.79,-15.15,0,*59
1513307197.36,43724,4.5,71530.0,-9.91,-17.35,-16.03,0,*53
1513307198.64,43725,4.5,71568.5,-9.91,-17.63,-16.65,0,*51
1513307199.92,43726,4.5,71580.3,-9.91,-18.89,-17.63,0,*5E
1513307201.2,43727,4.5,71598.3,-9.91,-18.55,-17.17,0,*5D
1513307202.43,43728,4.5,71598.0,-9.91,-18.41,-17.49,0,*5C
1513307203.72,43729,4.5,71560.3,-9.91,-17.41,-16.65,0,*5D
1513307205.01,43730,4.5,71564.0,-9.91,-15.43,-14.83,0,*5F
1513307206.29,43731,4.5,71576.0,-9.91,-15.43,-14.75,0,*57
1513307207.52,43732,4.5,71560.8,-9.91,-15.63,-14.89,0,*55
1513307208.8,43733,4.5,71550.8,-9.91,-16.51,-15.89,0,*57
1513307210.04,43734,4.5,71548.5,-9.89,-15.75,-15.43,0,*5A
1513307211.28,43735,4.5,71526.5,-9.91,-15.11,-15.25,0,*50
1513307212.54,43736,4.5,71582.3,-9.89,-14.83,-14.97,0,*58
1513307213.8,43737,4.5,71590.3,-9.89,-13.87,-13.97,0,*5D
1513307215.06,43738,4.5,71596.8,-9.89,-13.61,-13.97,0,*5A
1513307216.3,43739,4.5,71606.8,-9.89,-14.29,-14.47,0,*5A
1513307217.53,43740,4.5,71552.5,-9.89,-15.99,-15.89,0,*5D
1513307218.77,43741,4.5,71544.8,-9.89,-17.07,-16.75,0,*59
1513307220.0,43742,4.44,71522.5,-9.89,-17.07,-16.75,0,*5A
1513307221.26,43743,4.5,71566.8,-9.89,-16.31,-15.35,0,*58
1513307222.46,43744,4.5,71570.8,-9.89,-15.49,-14.29,0,*5F
1513307223.69,43745,4.5,71554.0,-9.89,-14.89,-13.83,0,*54
1513307224.9,43746,4.5,71564.3,-9.89,-14.37,-13.11,0,*59
1513307226.11,43747,4.5,71578.3,-9.89,-13.55,-12.43,0,*5D
1513307227.34,43748,4.5,71580.8,-9.89,-12.61,-12.03,0,*50
1513307228.57,43749,4.5,71556.5,-9.89,-12.25,-11.97,0,*5F
1513307229.8,43750,4.5,71558.0,-9.89,-12.97,-12.61,0,*54
1513307231.04,43751,4.5,71588.0,-9.89,-13.29,-12.97,0,*58
1513307232.27,43752,4.5,71588.0,-9.89,-12.71,-12.39,0,*53
1513307233.51,43753,4.44,71586.5,-9.89,-12.25,-11.97,0,*54
1513307234.74,43754,4.5,71566.8,-9.89,-12.03,-11.85,0,*54
1513307236.02,43755,4.5,71552.8,-9.87,-11.93,-11.85,0,*51
1513307237.29,43756,4.5,71556.8,-9.87,-11.85,-11.81,0,*51
1513307238.58,43757,4.5,71596.8,-9.87,-11.93,-11.85,0,*53
1513307239.84,43758,4.5,71590.8,-9.85,-11.93,-12.07,0,*57
1513307241.08,43759,4.5,71584.0,-9.85,-12.39,-12.53,0,*54
1513307242.3,43760,4.5,71592.8,-9.87,-12.39,-12.47,0,*59
1513307243.54,43761,4.5,71586.3,-9.87,-12.21,-12.25,0,*55
1513307244.8,43762,4.5,71590.8,-9.87,-12.07,-12.25,0,*52
1513307246.07,43763,4.5,71608.5,-9.87,-11.81,-11.97,0,*54
1513307247.36,43764,4.5,71562.0,-9.87,-11.85,-11.93,0,*53
1513307248.65,43765,4.44,71584.8,-9.87,-11.93,-11.93,0,*55
1513307249.93,43766,4.5,71608.8,-9.87,-11.93,-11.97,0,*52
1513307251.22,43767,4.5,71596.3,-9.87,-11.93,-11.97,0,*53
1513307252.48,43768,4.5,71628.3,-9.87,-12.21,-12.11,0,*5B
1513307253.71,43769,4.5,71660.5,-9.87,-12.47,-12.39,0,*50
1513307254.97,43770,4.5,71626.8,-9.87,-12.71,-12.47,0,*54
1513307256.22,43771,4.5,71612.8,-9.85,-14.43,-13.37,0,*56
1513307257.48,43772,4.44,71598.0,-9.87,-16.23,-15.25,0,*56
1513307258.71,43773,4.44,71524.3,-9.87,-17.73,-16.83,0,*5C
1513307259.94,43774,4.44,71524.8,-9.85,-18.35,-17.49,0,*53
1513307261.19,43775,4.44,71514.3,-9.87,-17.63,-16.97,0,*5E
1513307262.43,43776,4.44,71524.8,-9.85,-16.75,-15.81,0,*5D
1513307263.67,43777,4.44,71510.8,-9.85,-15.85,-14.65,0,*5B
1513307264.92,43778,4.5,71558.8,-9.87,-15.11,-13.97,0,*51
1513307266.15,43779,4.5,71552.5,-9.85,-15.71,-13.97,0,*54
1513307267.42,43780,4.5,71542.5,-9.85,-17.17,-14.83,0,*52
1513307268.66,43781,4.5,71562.5,-9.87,-17.49,-15.29,0,*5B
1513307269.89,43782,4.44,71516.5,-9.87,-17.49,-15.53,0,*55
1513307271.12,43783,4.5,71524.8,-9.87,-18.41,-16.89,0,*57
1513307272.35,43784,4.5,71542.8,-9.87,-18.21,-16.89,0,*56
1513307273.61,43785,4.5,71544.0,-9.87,-17.49,-16.13,0,*55
1513307274.87,43786,4.5,71548.3,-9.87,-16.59,-14.83,0,*5D
1513307276.12,43787,4.44,71552.5,-9.87,-15.07,-13.37,0,*5C
1513307277.4,43788,4.5,71544.5,-9.87,-13.83,-12.57,0,*5E
1513307278.63,43789,4.5,71542.8,-9.87,-13.19,-12.47,0,*5D
1513307279.89,43790,4.5,71556.8,-9.87,-12.97,-12.57,0,*53
1513307281.15,43791,4.5,71566.0,-9.87,-13.37,-13.11,0,*5A
1513307282.38,43792,4.44,71580.5,-9.87,-13.23,-13.19,0,*54
1513307283.61,43793,4.5,71576.3,-9.85,-13.33,-13.55,0,*5E
1513307284.85,43794,4.5,71574.5,-9.87,-14.19,-14.23,0,*52
1513307286.11,43795,4.5,71568.3,-9.87,-13.83,-13.55,0,*51
1513307287.39,43796,4.5,71590.0,-9.87,-12.65,-12.57,0,*58
1513307288.65,43797,4.5,71584.5,-9.85,-12.11,-12.35,0,*5C
1513307289.92,43798,4.5,71574.0,-9.87,-11.93,-12.21,0,*5D
1513307291.17,43799,4.5,71582.8,-9.87,-11.97,-12.25,0,*5C
1513307292.43,43800,4.5,71584.0,-9.87,-12.07,-12.25,0,*59
1513307293.71,43801,4.5,71596.8,-9.87,-11.93,-12.11,0,*51
1513307294.99,43802,4.5,71606.5,-9.87,-11.81,-11.97,0,*5C
1513307296.24,43803,4.5,71594.8,-9.85,-11.85,-12.11,0,*56
1513307297.53,43804,4.44,71546.0,-9.87,-11.97,-12.07,0,*57
1513307298.78,43805,4.44,71556.3,-9.85,-11.81,-11.93,0,*5D
1513307300.04,43806,4.44,71574.0,-9.85,-11.55,-11.73,0,*59
1513307301.28,43807,4.44,71578.3,-9.85,-11.41,-11.63,0,*5C
1513307302.57,43808,4.5,71582.0,-9.87,-11.29,-11.63,0,*5F
1513307303.82,43809,4.44,71644.5,-9.85,-11.51,-11.85,0,*5B
1513307305.08,43810,4.44,71616.8,-9.85,-11.55,-11.85,0,*57
1513307306.34,43811,4.5,71526.8,-9.85,-12.71,-12.53,0,*5B
1513307307.57,43812,4.5,71524.8,-9.85,-15.67,-15.21,0,*5A
1513307308.8,43813,4.44,71522.3,-9.85,-18.25,-18.01,0,*5F
1513307310.06,43814,4.5,71518.0,-9.85,-17.03,-17.21,0,*5E
1513307311.27,43815,4.44,71518.8,-9.85,-16.83,-16.97,0,*5A
1513307312.5,43816,4.5,71522.3,-9.85,-16.75,-16.31,0,*5C